Probability
0 0 0 0 0 0 0 0 0 0 0 0 0 0 0 0 0 0 0 0 0 0 0 0 0 0 0 0 0 0 0 0 0 0 0 0 0 0 0 0 0 0 0 0 0 0 0 0 0
0 0 0 0 0 0 0 0 0 0 0 0 0 0 0 0 0 0 0 0 0 0 0 0 0 0 0 0 0 0 0 0 0 0 0 0 0 0 0 0 0 0 0 0 0 0 0 0 0
0 0 0 0 0 0 0 0 0 0 0 0 0 0 0 0 0 0 0 0 0 0 0 0 0 0 0 0 0 0 0 0 0 0 0 0 0 0 0 0 0 0 0 0 0 0 0 0 0
0 0 0 0 0 0 0 0 0 0 0 0 0 0 0 0 0 0 0 0 0 0 0 0 0 0 0 0 0 0 0 0 0 0 0 0 0 0 0 0 0 0 0 0 0 0 0 0 0
0 0 0 0 0 0 0 0 0 0 0 0 0 0 0 0 0 0 0 0 0 0 0 0 0 0 0 0 0 0 0 0 0 0 0 0 0 0 0 0 0 0 0 0 0 0 0 0 0
0 0 0 0 0 0 0 0 0 0 0 0 0 0 0 0 0 0 0 0 0 0 0 0 0 0 0 0 0 0 0 0 0 0 0 0 0 0 0 0 0 0 0 0 0 0 0 0 0
0 0 0 0 0 0 0 0 0 0 0 0 0 0 0 0 0 0 0 0 0 0 0 0 0 0 0 0 0 0 0 0 0 0 0 0 0 0 0 0 0 0 0 0 0 0 0 0 0
0 0 0 0 0 0 0 0 0 0 0 0 0 0 0 0 0 0 0 0 0 0 0 0 0 0 0 0 0 0 0 0 0 0 0 0 0 0 0 0 0 0 0 0 0 0 0 0 0
0 0 0 0 0 0 0 0 0 0 0 0 0 0 0 0 0 0 0 0 0 0 0 0 0 0 0 0 0 0 0 0 0 0 0 0 0 0 0 0 0 0 0 0 0 0 0 0 0
0 0 0 0 0 0 0 0 0 0 0 0 0 0 0 0 0 0 0 0 0 0 0 0 0 0 0 0 0 0 0 0 0 0 0 0 0 0 0 0 0 0 0 0 0 0 0 0 0
0 0 0 0 0 0 0 0 0 0 0 0 0 0 0 0 0 0 0 0 0 0 0 0 0 0 0 0 0 0 0 0 0 0 0 0 0 0 0 0 0 0 0 0 0 0 0 0 0
0 0 0 0 0 0 0 0 0 0 0 0 0 0 0 0 0 0 0 0 0 0 0 0 0 0 0 0 0 0 0 0 0 0 0 0 0 0 0 0 0 0 0 0 0 0 0 0 0
0 0 0 0 0 0 0 0 0 0 0 0 0 0 0 0 0 0 0 0 0 0 0 0 0 0 0 0 0 0 0 0 0 0 0 0 0 0 0 0 0 0 0 0 0 0 0 0 0
0 0 0 0 0 0 0 0 0 0 0 0 0 0 0 0 0 0 0 0 0 0 0 0 0 0 0 0 0 0 0 0 0 0 0 0 0 0 0 0 0 0 0 0 0 0 0 0 0
0 0 0 0 0 0 0 0 0 0 0 0 0 0 0 0 0 0 0 0 0 0 0 0 0 0 0 0 0 0 0 0 0 0 0 0 0 0 0 0 0 0 0 0 0 0 0 0 0
0 0 0 0 0 0 0 0 0 0 0 0 0 0 0 0 0 0 0 0 0 0 0 0 0 0 0 0 0 0 0 0 0 0 0 0 0 0 0 0 0 0 0 0 0 0 0 0 0
0 0 0 0 0 0 0 0 0 0 0 0 0 0 0 0 0 0 0 0 0 0 0 0 0 0 0 0 0 0 0 0 0 0 0 0 0 0 0 0 0 0 0 0 0 0 0 0 0
0 0 0 0 0 0 0 0 0 0 0 0 0 0 0 0 0 0 0 0 0 0 0 0 0 0 0 0 0 0 0 0 0 0 0 0 0 0 0 0 0 0 0 0 0 0 0 0 0
0 0 0 0 0 0 0 0 0 0 0 0 0 0 0 0 0 0 0 0 0 0 0 0 0 0 0 0 0 0 0 0 0 0 0 0 0 0 0 0 0 0 0 0 0 0 0 0 0
0 0 0 0 0 0 0 0 0 0 0 0 0 0 0 0 0 0 0 0 0 0 0 0 0 0 0 0 0 0 0 0 0 0 0 0 0 0 0 0 0 0 0 0 0 0 0 0 0
0 0 0 0 0 0 0 0 0 0 0 0 0 0 0 0 0 0 0 0 0 0 0 0 0 0 0 0 0 0 0 0 0 0 0 0 0 0 0 0 0 0 0 0 0 0 0 0 0
0 0 0 0 0 0 0 0 0 0 0 0 0 0 0 0 0 0 0 0 0 0 0 0 0 0 0 0 0 0 0 0 0 0 0 0 0 0 0 0 0 0 0 0 0 0 0 0 0
0 0 0 0 0 0 0 0 0 0 0 0 0 0 0 0 0 0 0 0 0 0 0 0 0 0 0 0 0 0 0 0 0 0 0 0 0 0 0 0 0 0 0 0 0 0 0 0 0
0 0 0 0 0 0 0 0 0 0 0 0 0 0 0 0 0 0 0 0 0 0 0 0 0 0 0 0 0 0 0 0 0 0 0 0 0 0 0 0 0 0 0 0 0 0 0 0 0
0 0 0 0 0 0 0 0 0 0 0 0 0 0 0 0 0 0 0 0 0 0 0 0 0 0 0 0 0 0 0 0 0 0 0 0 0 0 0 0 0 0 0 0 0 0 0 0 0
0 0 0 0 0 0 0 0 0 0 0 0 0 0 0 0 0 0 0 0 0 0 0 0 0 0 0 0 0 0 0 0 0 0 0 0 0 0 0 0 0 0 0 0 0 0 0 0 0
0 0 0 0 0 0 0 0 0 0 0 0 0 0 0 0 0 0 0 0 0 0 0 0 0 0 0 0 0 0 0 0 0 0 0 0 0 0 0 0 0 0 0 0 0 0 0 0 0
0 0 0 0 0 0 0 0 0 0 0 0 0 0 0 0 0 0 0 0 0 0 0 0 0 0 0 0 0 0 0 0 0 0 0 0 0 0 0 0 0 0 0 0 0 0 0 0 0
0 0 0 0 0 0 0 0 0 0 0 0 0 0 0 0 0 0 0 0 0 0 0 0 0 0 0 0 0 0 0 0 0 0 0 0 0 0 0 0 0 0 0 0 0 0 0 0 0
0 0 0 0 0 0 0 0 0 0 0 0 0 0 0 0 0 0 0 0 0 0 0 0 0 0 0 0 0 0 0 0 0 0 0 0 0 0 0 0 0 0 0 0 0 0 0 0 0
Wind_Speed
5 4 4 6 11 12 7 4 3 4 5 2 2 7 8 6 6 6 1 10 13 12 14 16 24 24 25 25 25 25 26 26 26 26 26 27 27 27 27 27 27 27 27 26 26 26 26 26 26
3 5 9 9 10 7 4 4 5 4 6 4 3 5 6 6 4 5 4 10 11 11 12 15 23 24 24 25 25 25 26 25 25 25 26 26 27 27 27 28 27 27 26 26 26 26 26 26 26
6 10 10 10 9 5 4 3 4 5 5 3 4 5 5 4 4 4 5 7 7 9 12 16 24 24 24 25 25 25 25 25 25 25 25 26 27 27 27 28 28 27 27 26 26 26 26 26 26
7 9 11 12 10 4 3 1 3 6 4 5 5 6 5 6 3 4 5 5 6 8 10 16 25 24 24 24 25 25 25 25 24 25 25 25 26 26 26 27 27 27 27 27 27 26 26 26 26
7 9 12 9 6 3 3 3 2 4 3 4 5 6 4 4 5 5 3 4 6 8 10 14 24 24 23 23 25 25 25 25 24 25 25 25 26 26 26 27 26 26 26 26 27 27 27 26 26
8 8 10 6 4 3 2 2 3 5 4 4 6 5 2 2 2 2 3 4 6 7 9 13 22 24 23 23 24 24 24 24 24 24 25 26 27 27 26 27 26 26 26 26 26 27 27 26 26
8 9 8 8 6 4 3 2 4 4 4 3 5 6 3 1 1 2 3 4 5 7 9 10 11 14 20 22 23 24 23 23 23 24 25 26 27 27 27 27 26 26 26 26 26 26 27 26 26
7 10 8 5 6 4 4 3 3 3 4 2 4 8 6 4 3 2 2 3 4 6 7 8 9 10 11 11 20 23 22 22 22 23 24 24 24 24 26 25 25 26 26 26 26 26 26 26 25
6 10 5 5 7 6 5 4 3 3 5 4 3 4 6 7 4 1 1 3 5 9 7 9 9 10 10 9 14 16 17 19 18 16 22 19 10 10 14 21 24 25 26 26 26 26 26 25 23
9 7 4 1 6 7 5 5 7 4 5 3 4 4 5 4 3 1 4 8 10 10 8 6 7 7 7 9 6 6 8 8 9 8 10 8 8 9 14 20 23 24 25 24 25 25 22 18 11
9 7 4 4 5 7 6 5 5 8 3 6 8 8 6 4 3 3 5 6 6 5 6 6 6 7 7 6 5 4 4 5 6 8 9 8 6 6 8 6 10 11 16 11 15 15 11 11 11
9 6 5 4 4 5 5 5 4 2 3 7 9 8 6 5 4 4 5 5 4 5 6 5 5 6 6 6 5 4 5 5 5 7 8 7 6 7 7 6 7 7 7 9 9 8 11 12 12
7 5 4 7 10 7 6 5 4 2 4 7 7 6 6 5 4 3 4 3 3 4 6 5 4 6 6 5 5 6 5 5 6 5 6 7 6 7 7 7 6 7 7 8 9 10 12 12 13
6 7 6 6 6 3 6 3 4 3 5 7 7 6 5 5 5 3 2 1 3 4 6 6 4 6 6 5 5 4 5 5 5 5 7 8 6 6 7 8 6 6 7 8 8 11 10 10 11
5 7 5 3 3 3 5 2 5 7 7 7 6 5 5 4 5 4 3 1 2 3 5 7 5 6 6 6 6 6 5 6 5 6 6 7 8 7 8 7 6 7 8 9 9 10 8 10 11
5 5 2 1 3 3 2 5 5 8 9 8 7 6 5 4 4 4 3 2 1 3 5 6 7 6 6 6 6 5 5 5 5 5 5 7 8 8 7 7 6 7 8 7 9 7 10 10 10
3 2 1 2 4 4 4 6 4 8 10 9 8 7 6 4 4 4 4 2 1 3 5 5 6 6 6 6 6 6 5 5 5 5 5 7 8 9 7 7 6 8 7 7 9 9 9 11 11
1 2 2 3 5 5 5 7 4 8 10 9 8 7 6 7 6 5 4 2 1 3 4 5 5 5 5 5 4 4 5 5 4 5 5 8 8 9 8 7 7 8 7 6 7 9 9 9 11
3 3 2 2 4 6 9 10 7 8 9 9 9 8 8 7 5 4 4 2 2 3 4 4 5 6 5 4 5 5 5 5 4 4 7 8 8 9 9 7 7 8 7 8 9 9 11 9 9
3 2 1 1 3 5 5 9 6 8 9 9 10 10 9 6 5 5 4 2 2 4 4 5 6 6 6 4 4 4 6 4 4 5 7 8 9 10 10 9 8 9 8 8 8 10 9 9 7
2 1 2 2 0 1 5 8 2 3 4 5 7 7 7 9 8 5 4 3 3 4 5 6 6 7 6 6 5 6 4 4 4 5 4 6 10 10 10 10 9 9 8 8 9 9 9 10 8
0 1 1 2 1 4 2 7 5 3 4 7 8 8 8 7 6 4 3 3 2 3 4 5 6 6 6 6 6 7 8 8 8 6 7 9 9 10 10 10 10 9 8 9 10 8 8 10 9
2 0 2 2 1 3 1 2 9 1 7 11 10 9 8 7 6 5 3 1 2 3 4 5 5 6 6 7 7 7 6 6 7 8 8 8 7 9 11 11 10 10 10 10 10 10 9 7 8
0 3 4 4 3 3 2 3 10 5 8 7 7 9 8 7 6 4 2 2 3 3 4 4 6 6 7 7 7 7 9 9 11 12 9 8 7 7 9 12 10 10 10 11 11 10 10 9 9
3 4 6 7 4 4 1 3 12 5 6 5 6 9 8 7 6 3 2 2 3 4 5 6 7 7 8 8 8 8 8 8 10 11 11 12 10 10 11 12 10 11 11 12 12 10 10 9 10
2 3 4 3 5 7 2 7 9 1 1 2 3 6 7 7 5 4 3 1 2 4 5 6 7 8 8 8 8 8 7 6 7 9 10 11 10 11 13 13 14 15 15 14 12 10 11 9 9
2 3 2 4 2 5 8 9 9 2 2 2 4 6 7 7 6 5 3 1 2 4 5 6 7 8 8 8 9 7 7 8 9 10 9 9 10 12 14 16 17 17 16 15 12 10 10 10 10
2 6 4 3 2 6 8 7 7 7 8 7 7 8 7 6 6 5 3 0 2 3 4 6 6 7 7 8 7 9 9 9 10 10 11 12 12 13 16 17 18 18 16 13 11 10 9 10 10
3 3 4 3 3 2 7 11 8 7 6 10 11 9 9 8 7 5 3 0 2 4 4 5 6 7 7 7 7 8 8 9 10 9 11 11 11 14 15 17 18 18 16 12 9 9 9 9 9
4 5 7 3 3 4 4 13 3 3 3 6 8 8 8 8 7 5 3 1 3 4 5 6 6 6 7 7 7 8 9 9 9 10 11 11 12 13 15 16 17 17 16 12 10 10 10 9 8
Wind_Direction
30 55 62 55 61 61 65 32 70 84 75 50 48 86 97 77 83 125 198 14 3 356 350 349 10 13 15 16 16 16 15 15 15 15 14 13 11 10 8 7 5 3 1 0 359 357 355 354 352
47 58 49 54 73 75 45 24 54 65 130 142 69 73 74 75 81 86 29 9 2 356 354 353 13 13 15 16 16 16 15 14 14 14 13 13 10 8 7 5 3 1 360 359 357 355 353 351 350
67 55 61 60 69 91 101 53 92 86 108 120 80 55 65 42 47 60 29 4 355 358 359 355 15 14 14 16 16 15 14 14 13 13 13 12 10 7 6 4 1 359 358 357 355 352 351 350 348
66 54 60 62 69 37 68 112 133 126 79 57 81 55 48 3 44 72 40 6 6 8 4 1 15 14 13 14 15 14 14 13 13 12 12 11 8 6 5 2 359 357 356 355 353 351 349 348 346
61 72 68 63 62 47 23 15 70 82 62 51 84 89 68 12 47 70 48 18 24 18 14 9 16 15 13 13 15 13 13 12 12 11 10 10 7 4 3 1 357 356 354 354 351 349 348 346 345
63 66 78 92 109 128 63 29 81 82 95 93 93 98 92 33 62 67 47 31 29 25 21 18 15 15 12 11 14 12 12 11 11 10 9 9 6 2 2 359 355 354 353 352 350 348 346 345 344
83 76 92 122 136 143 133 71 70 95 92 95 114 107 143 146 135 98 49 34 37 32 28 19 12 10 9 8 12 11 12 11 12 10 9 8 5 1 360 357 353 353 352 351 348 346 345 344 343
99 94 94 120 136 139 135 95 78 79 105 44 97 135 172 184 158 117 42 28 38 41 34 18 9 10 3 358 10 10 11 10 12 9 7 7 3 358 357 353 351 353 351 350 346 345 344 344 342
73 73 99 148 155 150 141 110 84 60 86 45 55 135 153 145 146 168 318 24 30 31 29 20 11 8 0 358 11 7 8 7 10 5 4 4 354 347 355 347 350 351 349 349 344 344 344 344 340
55 91 126 109 146 138 122 123 146 110 82 68 54 79 110 125 154 139 45 33 25 10 7 20 4 3 360 4 0 357 359 354 354 355 356 351 348 345 354 345 348 349 347 347 343 342 344 340 333
60 98 110 67 97 107 108 117 134 128 148 178 173 168 157 151 146 87 60 49 21 346 350 7 5 2 4 1 354 1 350 345 346 350 352 347 343 342 343 336 341 342 344 340 338 337 334 330 328
81 60 84 101 86 90 109 115 112 154 192 168 164 159 161 155 123 92 72 51 7 348 345 356 7 3 0 356 344 358 349 345 347 345 349 348 344 341 338 333 330 335 336 332 331 328 325 325 321
73 88 57 77 80 85 90 94 116 109 116 122 137 147 155 144 123 102 91 60 6 347 342 346 9 6 355 354 347 358 341 341 335 336 343 346 342 337 333 327 325 327 329 329 327 325 322 324 321
88 89 91 72 78 82 107 109 113 165 148 140 155 165 164 158 154 133 104 39 354 348 345 338 7 7 353 351 340 336 332 329 328 333 337 341 338 332 331 325 323 327 328 326 324 317 319 320 317
99 85 73 81 92 116 115 152 204 176 159 167 180 181 175 170 161 155 152 167 359 348 337 338 4 8 352 345 338 340 325 326 327 330 330 333 335 331 330 324 324 328 326 324 324 315 321 319 317
80 81 78 176 122 139 143 259 195 161 163 186 198 200 191 178 169 165 168 172 28 348 334 335 352 353 347 342 330 322 319 319 317 319 321 325 330 329 327 321 319 322 323 324 323 324 327 320 317
53 88 215 209 182 157 189 248 191 170 177 195 204 208 203 193 187 185 182 171 33 337 317 322 331 344 343 335 325 315 313 311 309 312 314 322 326 326 322 313 314 321 319 320 323 329 322 319 318
188 199 236 241 195 171 217 249 211 185 190 203 208 211 210 210 210 194 186 177 337 317 307 310 327 338 335 328 321 312 309 304 306 309 313 321 323 323 319 309 316 318 316 316 318 319 319 314 315
137 160 239 267 166 185 229 251 231 193 197 207 212 214 216 220 209 186 184 190 297 297 312 321 338 338 341 338 334 322 318 310 306 310 319 316 315 318 314 314 315 314 313 314 314 318 317 317 319
116 125 247 271 167 209 262 263 240 192 203 205 207 211 210 206 197 205 208 214 272 295 317 332 342 334 335 326 313 299 305 300 303 309 307 308 315 318 321 318 314 310 309 309 311 316 313 317 328
89 148 249 250 63 41 325 301 219 213 203 208 209 207 199 199 203 213 220 234 264 304 327 336 329 329 327 324 317 319 302 296 313 317 304 313 317 316 312 310 310 308 304 304 305 303 311 314 311
165 235 185 150 42 315 2 306 285 222 233 227 217 203 198 197 190 197 212 239 283 322 334 328 326 327 327 329 331 335 341 332 324 318 314 317 314 315 315 314 310 306 304 300 298 308 301 301 305
228 39 139 145 143 326 333 250 287 147 257 242 221 204 196 189 183 188 190 205 8 355 336 329 331 329 329 331 329 326 317 305 312 317 316 315 314 314 316 316 309 306 304 298 293 295 290 290 288
144 79 70 68 72 316 229 199 281 222 226 247 215 196 189 180 176 164 130 64 12 348 337 340 343 334 329 328 324 319 313 315 324 329 325 325 320 312 308 312 304 301 299 296 294 289 284 284 281
58 63 12 354 355 277 169 228 253 253 218 227 211 192 179 170 165 162 115 32 347 340 349 351 346 332 326 325 320 313 310 314 321 325 326 326 324 321 315 310 305 301 295 293 291 288 285 279 276
40 95 122 276 276 296 292 248 259 259 231 243 194 164 157 162 162 153 125 79 327 348 355 349 337 326 323 322 318 310 314 323 322 320 320 317 316 314 310 312 308 302 297 295 292 288 283 279 276
94 92 130 143 295 288 282 282 301 154 238 178 156 154 170 172 162 149 134 122 356 357 348 337 327 322 319 318 317 319 330 327 323 319 315 313 313 315 318 314 310 308 303 298 296 288 282 281 279
71 141 97 108 315 297 294 284 267 257 241 219 204 192 186 169 157 151 154 166 2 352 333 328 322 315 311 315 322 339 330 324 322 321 319 319 318 318 319 319 320 320 317 307 299 296 289 285 283
129 116 111 114 164 216 294 278 229 232 228 218 210 192 180 172 166 164 171 142 6 343 331 322 318 314 312 316 320 325 323 323 324 322 320 320 320 323 325 327 329 330 333 330 319 310 303 298 297
178 179 154 167 226 201 239 271 257 222 248 221 199 176 169 161 157 160 160 69 354 330 321 317 313 312 311 316 323 325 324 324 324 322 322 324 326 327 330 333 336 342 345 348 349 344 342 336 334